This is the latest recevied weather packets stored in our database for station/object F6ZBX-10. If no packets are shown the sender has not sent any weather packets the latest 10 day(s).
| Time | Temp. | Humidity | Pressure | Rain* | Wind** | Luminosity | Snow |
|---|---|---|---|---|---|---|---|
| 1787477738 | 25° C | 55% | 1016.2 hPa | - | - | - | - |
| 1787476838 | 25° C | 55% | 1016.1 hPa | - | - | - | - |
| 1787475938 | 25° C | 55% | 1016.3 hPa | - | - | - | - |
| 1787475038 | 25.56° C | 55% | 1016.4 hPa | - | - | - | - |
| 1787474138 | 25.56° C | 54% | 1016.2 hPa | - | - | - | - |
| 1787473238 | 25° C | 54% | 1016.2 hPa | - | - | - | - |
| 1787472338 | 25.56° C | 55% | 1016.2 hPa | - | - | - | - |
| 1787471434 | 25.56° C | 55% | 1016.3 hPa | - | - | - | - |
| 1787469634 | 25° C | 56% | 1016.4 hPa | - | - | - | - |
| 1787468738 | 25.56° C | 54% | 1016.3 hPa | - | - | - | - |
| 1787467834 | 25.56° C | 53% | 1016.2 hPa | - | - | - | - |
| 1787466034 | 23.89° C | 58% | 1016.3 hPa | - | - | - | - |
| 1787465138 | 24.44° C | 55% | 1016 hPa | - | - | - | - |
| 1787464236 | 24.44° C | 56% | 1016.1 hPa | - | - | - | - |
| 1787463336 | 25° C | 55% | 1015.8 hPa | - | - | - | - |
| 1787462436 | 25° C | 55% | 1015.7 hPa | - | - | - | - |
| 1787461543 | 25° C | 55% | 1015.6 hPa | - | - | - | - |
| 1787460636 | 25° C | 55% | 1015.7 hPa | - | - | - | - |
| 1787459736 | 25° C | 55% | 1015.5 hPa | - | - | - | - |
| 1787458836 | 25° C | 55% | 1015.6 hPa | - | - | - | - |
| 1787457936 | 25° C | 55% | 1015.5 hPa | - | - | - | - |
| 1787457036 | 25° C | 55% | 1015.7 hPa | - | - | - | - |
| 1787456136 | 25° C | 55% | 1015.6 hPa | - | - | - | - |
| 1787455236 | 25° C | 55% | 1015.5 hPa | - | - | - | - |
| 1787453436 | 25° C | 54% | 1015.6 hPa | - | - | - | - |
* Rain since midnight (hover to see other rain measurements)
** Current wind speed in m/s (hover to see current wind gust speed)